Location: Bailey Volunteer Fire Department
(33.4359°N, 96.1680°W)
Time: 17:12:44
(UTC+00:00)

Okean 1 - Pass Details

Date: 13 December 2025
Orbit: 465 x 485 km, 82.5° (Epoch: 13 January)

Event Time Altitude Azimuth Distance (km) Brightness Sun altitude
Rises 23:51:13 0° 161° (SSE) 2,523 6.8 -7.1°
Reaches altitude 10° 23:53:32 10° 148° (SSE) 1,645 5.7 -7.6°
Maximum altitude 23:56:33 25° 91° (E) 986 4.1 -8.1°
Drops below altitude 10° 23:59:33 10° 34° (NE) 1,645 5.3 -8.7°
Enters shadow 00:00:31 - 27° (NNE) 1,993 5.7 -8.9°
